[[{"header":{"parameterUnit":"m.s-1","parameterCategory":1,"la1":30.2991,"la2":30.254,"lo1":-89.0895,"lo2":-89.0444,"dy":0.0017,"dx":0.0017,"nx":28,"ny":28,"refTime":"2024-11-26T03:00:00:Z","depth":0,"parameterNumber":2,"parameterNumberName":"U-component_of_WINDS"},"data":[0,0,0,0,0,0,0,0,0,0,0,0,0,0,0,0,0,0,0,0,0,0,0,0,0,0,0,0,0,0,0,0,0,0,0,0,0,0,0,0,0,0,0,0,0,0,0,0,0,0,0,0,0,0,0,0,0,0,2.1557,2.1558,0,2.1659,2.166,2.1661,2.1667,2.1666,2.1664,2.1663,2.1771,2.1775,2.1779,0,0,0,0,0,0,0,0,0,0,0,0,0,2.1371,2.1374,2.1557,2.1558,2.1559,2.1659,2.166,2.1661,2.1667,2.1666,2.1664,2.1663,2.177,2.1775,2.178,0,0,0,0,0,0,0,0,0,0,0,0,0,2.146,2.1375,2.1557,2.1574,2.1577,2.1658,2.166,2.1662,2.1667,2.1665,2.1664,2.1662,2.1769,2.1774,2.178,2.1853,0,0,2.1799,2.1801,0,0,0,0,0,0,0,0,2.1455,2.1467,2.157,2.1573,2.1576,2.1648,2.1634,2.1726,2.1668,2.1633,2.1663,2.1661,2.1732,2.1741,2.1764,2.1858,2.1862,2.1799,2.1803,2.1805,2.1807,0,0,0,0,0,0,0,2.1449,2.1463,2.1597,2.1572,2.1575,2.1578,2.1589,2.1652,2.1691,2.1636,2.1636,2.1648,2.1733,2.1758,2.1767,2.1864,2.1799,2.1804,2.1808,2.181,2.2023,2.2025,0,0,0,0,0,0,2.1439,2.1457,2.1594,2.16,2.151,2.1583,2.1595,2.1627,2.1691,2.1699,2.165,2.1648,2.1749,2.176,2.1771,2.186,2.1805,2.1811,2.1814,2.2021,2.2023,2.2025,0,0,0,0,0,0,2.1435,2.1451,2.159,2.1529,2.1547,2.1588,2.1624,2.163,2.1655,2.1701,2.1709,2.1668,2.1748,2.1762,2.1832,2.1863,2.1814,2.1819,2.2018,2.2022,2.2024,2.2038,0,0,0,0,0,0,2.1429,2.1449,2.1476,2.153,2.155,2.1649,2.1626,2.1633,2.1665,2.1663,2.172,2.1728,2.1748,2.1823,2.1838,2.1871,2.1824,2.2016,2.202,2.2023,2.2035,2.2041,2.2047,0,0,0,0,0,2.1423,2.1477,2.1478,2.1494,2.1585,2.165,2.1662,2.1683,2.1667,2.1695,2.1725,2.1726,2.1858,2.183,2.1847,2.1882,2.2014,2.2019,2.2023,2.2032,2.204,2.2047,0,0,0,0,0,0,2.1428,2.1484,2.1486,2.1559,2.1599,2.1651,2.1687,2.1691,2.1738,2.1735,2.176,2.1773,2.1842,2.1869,2.1838,2.1956,2.1934,2.1942,2.1935,2.1943,2.1949,2.1941,2.1829,0,0,0,0,0,2.1437,2.1485,2.1532,2.1592,2.1612,2.1646,2.1676,2.1688,2.1732,2.175,2.1785,2.1828,2.188,2.1913,2.1963,2.2039,2.2052,2.2072,2.2077,2.2082,2.2089,2.2131,2.2141,2.2041,2.2041,2.2041,0,0,2.1457,2.1494,2.1523,2.1594,2.1627,2.1677,2.1661,2.1714,2.1751,2.1758,2.1826,2.1853,2.1904,2.1977,2.2011,2.2002,2.2119,2.2088,2.2091,2.2096,2.2137,2.2147,2.2155,2.2044,2.2043,2.2043,0,0,2.152,2.1552,2.1605,2.1639,2.1689,2.1711,2.1724,2.1775,2.1793,2.1861,2.1867,2.1913,2.2001,2.2036,2.2066,2.2142,2.2144,2.2157,2.2188,2.2229,2.2237,2.2244,2.2271,2.2281,2.2164,2.2164,2.2164,0,2.1539,2.1612,2.1633,2.1686,2.1717,2.1724,2.1779,2.1811,2.1875,2.1897,2.1885,2.1995,2.203,2.2112,2.213,2.2154,2.217,2.2151,2.2234,2.2241,2.2248,2.2275,2.2285,2.2165,2.2165,2.2165,2.2165,0,2.1634,2.1685,2.1722,2.1782,2.1818,2.1872,2.1901,2.1935,2.1945,2.1969,2.2038,2.208,2.2138,2.2159,2.2169,2.2243,2.2235,2.2228,2.2207,2.2259,2.2284,2.2294,2.2167,2.2167,2.2166,2.2166,0,0,2.1701,2.1772,2.1785,2.1813,2.1869,2.1909,2.1964,2.202,2.2048,2.2093,2.214,2.2214,2.2208,2.2241,2.2256,2.2292,2.235,2.2281,2.2283,2.2292,2.2434,2.2438,2.2449,2.2352,2.2354,2.2356,2.2429,0,2.177,2.1865,2.1885,2.1968,2.2016,2.2024,2.2072,2.2112,2.2136,2.2181,2.2208,2.226,2.2248,2.2268,2.2305,2.2335,2.2378,2.233,2.2397,2.2399,2.2383,2.2462,2.2467,2.2535,2.2439,2.2441,2.2442,0,2.1862,2.1907,2.1994,2.2043,2.2064,2.2107,2.216,2.2202,2.2248,2.2263,2.2301,2.2312,2.237,2.2346,2.2427,2.2393,2.2422,2.2441,2.2444,2.2451,2.2423,2.2471,2.2557,2.2567,2.2458,2.2457,2.2455,0,2.1902,2.1985,2.2048,2.2071,2.2131,2.216,2.2187,2.2231,2.2263,2.231,2.2331,2.2385,2.2414,2.2456,2.2481,2.2461,2.256,2.2538,2.2575,2.2574,2.2595,2.2594,2.2686,2.2614,2.2614,2.2614,2.2613,0,2.1976,2.2029,2.2067,2.2105,2.2166,2.2189,2.2248,2.2275,2.2314,2.2359,2.237,2.2412,2.2443,2.249,2.251,2.2574,2.2588,2.2602,2.2607,2.2601,2.2599,2.262,2.2616,2.2616,2.2616,2.2615,2.2615,0,2.2031,2.2058,2.2127,2.2177,2.2191,2.2234,2.2277,2.2316,2.234,2.2397,2.2412,2.245,2.2506,2.2535,2.2606,2.262,2.2691,2.2694,2.2675,2.2677,2.2712,2.2709,2.2822,2.2838,2.2755,2.2755,2.2756,0,2.2075,2.2116,2.2171,2.2201,2.2228,2.2277,2.2309,2.2334,2.2368,2.2424,2.2456,2.2512,2.2558,2.2647,2.2682,2.2736,2.274,2.2776,2.2748,2.2741,2.274,2.2737,2.2742,2.2781,2.2781,2.2782,2.2782,0,2.2152,2.2164,2.221,2.2261,2.23,2.2342,2.2383,2.2408,2.2439,2.2477,2.2534,2.2569,2.2641,2.2697,2.2753,2.2782,2.2788,2.2791,2.2802,2.2797,2.2784,2.2791,2.2688,2.2788,2.2788,2.2787,2.2787,2.2787,2.2204,2.224,2.2284,2.2336,2.2369,2.2408,2.2446,2.2475,2.2522,2.2581,2.2594,2.2653,2.2699,2.2776,2.2806,2.2854,2.2847,2.2863,2.2868,2.2871,2.2873,2.2776,2.2865,2.2865,2.2865,2.2864,2.2864,0,2.2281,2.2309,2.2356,2.2413,2.2454,2.2455,2.2501,2.2535,2.2587,2.2629,2.2674,2.274,2.2794,2.2833,2.2889,2.292,2.2924,2.2934,2.2932,2.2938,2.2876,2.286,2.2929,2.2929,2.2929,2.2929,2.2929,2.2929,2.2325,2.2388,2.2405,2.2484,2.2513,2.2571,2.2597,2.2633,2.2666,2.2738,2.2783,2.2808,2.2849,2.2908,2.2958,2.2969,2.2989,2.2998,2.3008,2.295,2.2943,2.2936,2.2921,2.3002,2.3002,2.3067,2.3067,2.3068]},{"header":{"parameterUnit":"m.s-1","parameterCategory":1,"la1":30.2991,"la2":30.254,"lo1":-89.0895,"lo2":-89.0444,"dy":0.0017,"dx":0.0017,"nx":28,"ny":28,"refTime":"2024-11-26T03:00:00:Z","depth":0,"parameterNumber":3,"parameterNumberName":"V-component_of_WINDS"},"data":[0,0,0,0,0,0,0,0,0,0,0,0,0,0,0,0,0,0,0,0,0,0,0,0,0,0,0,0,0,0,0,0,0,0,0,0,0,0,0,0,0,0,0,0,0,0,0,0,0,0,0,0,0,0,0,0,0,0,1.6938,1.6939,0,1.7026,1.7027,1.7028,1.7016,1.7015,1.7013,1.7012,1.7106,1.7109,1.7113,0,0,0,0,0,0,0,0,0,0,0,0,0,1.676,1.6763,1.6938,1.6939,1.694,1.7026,1.7028,1.7029,1.7017,1.7015,1.7013,1.7011,1.7104,1.7109,1.7114,0,0,0,0,0,0,0,0,0,0,0,0,0,1.6842,1.6764,1.6938,1.6944,1.6946,1.7026,1.7028,1.7029,1.7017,1.7015,1.7012,1.701,1.7103,1.7108,1.7114,1.7194,0,0,1.7132,1.7134,0,0,0,0,0,0,0,0,1.6837,1.6848,1.6942,1.6944,1.6946,1.7008,1.6999,1.7085,1.7017,1.699,1.7012,1.7009,1.7075,1.7083,1.7105,1.7199,1.7203,1.7132,1.7136,1.7138,1.714,0,0,0,0,0,0,0,1.6831,1.6844,1.6973,1.6944,1.6946,1.6943,1.6953,1.7015,1.7044,1.6992,1.6991,1.7002,1.7076,1.7099,1.7107,1.7204,1.7132,1.7137,1.7141,1.7143,1.7368,1.737,0,0,0,0,0,0,1.6824,1.684,1.697,1.6976,1.6885,1.6948,1.6959,1.699,1.7043,1.7049,1.7004,1.7001,1.709,1.71,1.711,1.7207,1.7138,1.7144,1.7147,1.7365,1.7368,1.7371,0,0,0,0,0,0,1.682,1.6835,1.6967,1.6907,1.6924,1.6954,1.6989,1.6993,1.7017,1.7052,1.7057,1.7022,1.7089,1.7102,1.7173,1.721,1.7146,1.7152,1.7362,1.7366,1.737,1.7402,0,0,0,0,0,0,1.6815,1.6834,1.6865,1.6908,1.6927,1.7028,1.6992,1.6997,1.7026,1.7024,1.7071,1.7077,1.7088,1.7165,1.7179,1.7217,1.7156,1.7359,1.7364,1.7368,1.7398,1.7406,1.7414,0,0,0,0,0,1.6808,1.6871,1.6866,1.6882,1.6966,1.703,1.7041,1.7052,1.7029,1.706,1.7083,1.7075,1.7203,1.7172,1.7188,1.7228,1.7357,1.7363,1.7368,1.7394,1.7405,1.7413,0,0,0,0,0,0,1.6832,1.6877,1.6872,1.695,1.6986,1.7028,1.7067,1.7063,1.7107,1.7103,1.7116,1.7126,1.7198,1.7221,1.7185,1.7308,1.7277,1.7286,1.7291,1.7302,1.7309,1.7303,1.7161,0,0,0,0,0,1.6846,1.6894,1.6931,1.6996,1.7014,1.7038,1.7066,1.7071,1.711,1.7125,1.7153,1.7191,1.724,1.7272,1.7319,1.74,1.7411,1.7436,1.7444,1.745,1.7458,1.7503,1.7514,1.7389,1.7389,1.7389,0,0,1.6877,1.6907,1.6936,1.7002,1.703,1.708,1.7051,1.7105,1.7142,1.7134,1.7202,1.7224,1.7267,1.7344,1.7379,1.7364,1.7495,1.7457,1.7462,1.7467,1.7509,1.7521,1.7532,1.7393,1.7392,1.7392,0,0,1.6957,1.6985,1.7042,1.707,1.7113,1.7128,1.7142,1.7184,1.7197,1.7266,1.7261,1.7305,1.7389,1.742,1.7447,1.7537,1.7531,1.7552,1.7594,1.7637,1.7647,1.7655,1.7688,1.7699,1.7559,1.756,1.756,0,1.6989,1.7063,1.7072,1.7126,1.7155,1.7148,1.7207,1.7234,1.7291,1.7311,1.7294,1.7398,1.7427,1.751,1.7532,1.7554,1.757,1.7547,1.7644,1.7653,1.7662,1.7692,1.7704,1.7562,1.7562,1.7561,1.7561,0,1.7101,1.7152,1.7193,1.7246,1.728,1.7336,1.7354,1.7386,1.7388,1.7405,1.7475,1.7509,1.7562,1.7582,1.7586,1.7666,1.7656,1.7641,1.761,1.7675,1.7705,1.7717,1.7565,1.7564,1.7563,1.7563,0,0,1.72,1.7256,1.7271,1.7295,1.7341,1.7381,1.7436,1.7487,1.7515,1.7554,1.7601,1.7671,1.7658,1.7688,1.7694,1.7732,1.7801,1.7713,1.7714,1.7728,1.7892,1.7903,1.7916,1.7797,1.7799,1.7801,1.7888,0,1.7285,1.7382,1.7391,1.7478,1.7525,1.7519,1.7567,1.7601,1.7618,1.7661,1.768,1.7729,1.7708,1.7726,1.7763,1.7785,1.7834,1.7778,1.7841,1.7844,1.7831,1.7931,1.7943,1.8024,1.7899,1.7901,1.7903,0,1.7397,1.7437,1.7529,1.7568,1.7588,1.7631,1.7678,1.7719,1.7757,1.7766,1.7799,1.78,1.7858,1.7823,1.7903,1.7865,1.7891,1.7906,1.7909,1.7916,1.7878,1.7941,1.805,1.8062,1.7921,1.7919,1.7918,0,1.746,1.7538,1.7602,1.7623,1.7669,1.77,1.7721,1.7756,1.7786,1.7827,1.7846,1.7894,1.792,1.7957,1.7971,1.7945,1.805,1.8017,1.806,1.806,1.8083,1.8082,1.8198,1.8099,1.8099,1.8099,1.8099,0,1.7554,1.761,1.7631,1.7671,1.7734,1.7744,1.7806,1.7825,1.7857,1.7901,1.7898,1.794,1.7955,1.7999,1.801,1.8074,1.8086,1.8096,1.8098,1.8097,1.8095,1.8115,1.811,1.8102,1.8101,1.8101,1.81,0,1.7636,1.7652,1.7722,1.7759,1.777,1.7815,1.7847,1.7886,1.7901,1.7957,1.797,1.7995,1.8047,1.8064,1.8127,1.8134,1.8209,1.8206,1.8196,1.8196,1.8238,1.8234,1.8371,1.839,1.8278,1.8279,1.828,0,1.7695,1.7738,1.7779,1.7808,1.783,1.7876,1.7906,1.7917,1.7948,1.7994,1.8027,1.8078,1.8119,1.8202,1.8226,1.8274,1.8272,1.8317,1.828,1.8276,1.8273,1.8271,1.8275,1.8324,1.8326,1.8327,1.8327,0,1.7798,1.7804,1.7846,1.7891,1.7927,1.7963,1.7998,1.8022,1.8038,1.8074,1.8125,1.8157,1.822,1.8271,1.8319,1.8342,1.8338,1.8339,1.8351,1.835,1.8342,1.8347,1.8215,1.8336,1.8335,1.8334,1.8334,1.8333,1.7871,1.7908,1.7943,1.799,1.8018,1.805,1.8088,1.8108,1.8151,1.8202,1.8206,1.8263,1.8299,1.8363,1.8387,1.8432,1.8419,1.8437,1.8442,1.8447,1.845,1.8334,1.8441,1.844,1.844,1.844,1.844,0,1.7974,1.7996,1.8039,1.8088,1.8125,1.8116,1.8154,1.8186,1.8235,1.8269,1.8309,1.8368,1.8417,1.8444,1.8493,1.8523,1.8522,1.8536,1.8534,1.8539,1.8458,1.8443,1.8535,1.8535,1.8535,1.8535,1.8535,1.8535,1.8032,1.8095,1.8105,1.8181,1.8203,1.8257,1.8279,1.8309,1.8336,1.8402,1.8442,1.8459,1.849,1.8541,1.8585,1.8592,1.861,1.8625,1.863,1.8555,1.8545,1.8536,1.8521,1.8628,1.8629,1.8707,1.8708,1.8709]}]]